| time (UTC) | temp F | wind direction | speed knots | gust knots | rain 1hr in | rain 24hr in | rain mn in | humidity % | barometer mb |
| 20260510140052 | 55 | 271 | 1.7 | 8.7 | 0.00 | 0.00 | 0.00 | 67 | 1014.6 |
| 20260510134555 | 56 | 300 | 1.7 | 8.7 | 0.00 | 0.00 | 0.00 | 67 | 1014.7 |
| 20260510133044 | 56 | 340 | 1.7 | 7.8 | 0.00 | 0.00 | 0.00 | 66 | 1014.6 |
| 20260510131545 | 56 | 63 | 0.9 | 7.0 | 0.00 | 0.00 | 0.00 | 67 | 1014.7 |
| 20260510130052 | 56 | 51 | 0.9 | 7.8 | 0.00 | 0.00 | 0.00 | 69 | 1014.8 |
| 20260510124559 | 56 | 57 | 1.7 | 8.7 | 0.00 | 0.00 | 0.00 | 68 | 1015.0 |
| 20260510123046 | 56 | 331 | 1.7 | 8.7 | 0.00 | 0.00 | 0.00 | 68 | 1015.1 |
| 20260510121546 | 56 | 71 | 1.7 | 9.6 | 0.00 | 0.00 | 0.00 | 69 | 1015.2 |
| 20260510120047 | 57 | 327 | 1.7 | 9.6 | 0.00 | 0.00 | 0.00 | 68 | 1015.3 |
| 20260510114550 | 57 | 291 | 1.7 | 8.7 | 0.00 | 0.00 | 0.00 | 67 | 1015.3 |
| 20260510113051 | 58 | 112 | 1.7 | 7.8 | 0.00 | 0.00 | 0.00 | 64 | 1015.5 |
| 20260510111545 | 58 | 317 | 1.7 | 7.8 | 0.00 | 0.00 | 0.00 | 65 | 1015.5 |
| 20260510110049 | 59 | 318 | 3.5 | 10.4 | 0.00 | 0.00 | 0.00 | 63 | 1015.7 |
| 20260510104555 | 58 | 200 | 1.7 | 7.8 | 0.00 | 0.00 | 0.00 | 64 | 1015.6 |
| 20260510103052 | 58 | 83 | 2.6 | 8.7 | 0.00 | 0.00 | 0.00 | 64 | 1015.6 |
| 20260510101551 | 58 | 311 | 0.9 | 5.2 | 0.00 | 0.00 | 0.00 | 67 | 1015.7 |
| 20260510094601 | 56 | 25 | 1.7 | 7.8 | 0.00 | 0.00 | 0.00 | 69 | 1015.9 |
| 20260510093054 | 57 | 325 | 2.6 | 10.4 | 0.00 | 0.00 | 0.00 | 69 | 1016.0 |
| 20260510091550 | 55 | 47 | 1.7 | 7.0 | 0.00 | 0.00 | 0.00 | 71 | 1016.1 |
| 20260510090112 | 53 | 105 | 1.7 | 9.6 | 0.00 | 0.00 | 0.00 | 74 | 1016.2 |
| 20260510084549 | 53 | 343 | 1.7 | 8.7 | 0.00 | 0.00 | 0.00 | 75 | 1016.4 |
| 20260510083100 | 52 | 254 | 0.9 | 7.0 | 0.00 | 0.00 | 0.00 | 77 | 1016.4 |
| 20260510081544 | 52 | 329 | 0.0 | 7.8 | 0.00 | 0.00 | 0.00 | 79 | 1016.5 |
| 20260510080045 | 51 | 79 | 2.6 | 8.7 | 0.00 | 0.00 | 0.00 | 80 | 1016.6 |
| 20260510074552 | 51 | 134 | 2.6 | 8.7 | 0.00 | 0.00 | 0.00 | 81 | 1016.6 |
| 20260510073044 | 50 | 15 | 1.7 | 7.0 | 0.00 | 0.00 | 0.00 | 82 | 1016.5 |
| 20260510071553 | 50 | 147 | 1.7 | 7.0 | 0.00 | 0.00 | 0.00 | 83 | 1016.4 |
| 20260510070051 | 50 | 311 | 0.9 | 4.3 | 0.00 | 0.00 | 0.00 | 83 | 1016.4 |
| 20260510064545 | 49 | 67 | 0.9 | 7.8 | 0.00 | 0.00 | 0.00 | 84 | 1016.3 |
| 20260510063044 | 49 | 88 | 0.9 | 7.8 | 0.00 | 0.00 | 0.00 | 84 | 1016.3 |
| 20260510061551 | 49 | 267 | 0.9 | 6.1 | 0.00 | 0.00 | 0.00 | 84 | 1016.2 |
| 20260510060054 | 49 | 26 | 0.9 | 7.8 | 0.00 | 0.00 | 0.00 | 84 | 1016.0 |
| 20260510054547 | 49 | 53 | 1.7 | 6.1 | 0.00 | 0.00 | 0.00 | 84 | 1016.0 |
| 20260510053049 | 49 | 136 | 0.9 | 5.2 | 0.00 | 0.00 | 0.00 | 84 | 1016.1 |
| 20260510051555 | 48 | 84 | 0.9 | 3.5 | 0.00 | 0.00 | 0.00 | 84 | 1016.1 |
| 20260510050045 | 48 | 98 | 0.9 | 3.5 | 0.00 | 0.00 | 0.00 | 84 | 1016.1 |
| 20260510044554 | 48 | 132 | 0.9 | 4.3 | 0.00 | 0.00 | 0.00 | 84 | 1016.0 |
| 20260510043053 | 48 | 99 | 0.9 | 4.3 | 0.00 | 0.00 | 0.00 | 84 | 1016.0 |
| 20260510041553 | 49 | 0 | 0.9 | 3.5 | 0.00 | 0.00 | 0.00 | 83 | 1016.1 |
| 20260510040050 | 49 | 304 | 0.0 | 3.5 | 0.00 | 0.00 | 0.00 | 83 | 1016.3 |
| 20260510034552 | 49 | 0 | 0.0 | 2.6 | 0.00 | 0.00 | 0.00 | 83 | 1016.4 |
| 20260510033112 | 49 | 0 | 0.0 | 2.6 | 0.00 | 0.00 | 0.00 | 82 | 1016.5 |
| 20260510031553 | 49 | 0 | 0.9 | 5.2 | 0.00 | 0.00 | 0.00 | 82 | 1016.6 |
| 20260510030052 | 49 | 325 | 0.9 | 4.3 | 0.00 | 0.00 | 0.00 | 81 | 1016.6 |
| 20260510024552 | 49 | 0 | 0.9 | 6.1 | 0.00 | 0.00 | 0.00 | 80 | 1016.4 |
| 20260510023055 | 50 | 0 | 0.9 | 2.6 | 0.00 | 0.00 | 0.00 | 79 | 1016.6 |
| 20260510021546 | 50 | 0 | 0.9 | 3.5 | 0.00 | 0.00 | 0.00 | 77 | 1016.6 |
| 20260510020057 | 51 | 82 | 1.7 | 3.5 | 0.00 | 0.00 | 0.00 | 75 | 1016.5 |
| 20260510014553 | 51 | 331 | 0.9 | 4.3 | 0.00 | 0.00 | 0.00 | 74 | 1016.3 |
| 20260510013052 | 51 | 0 | 0.9 | 4.3 | 0.00 | 0.00 | 0.00 | 72 | 1016.5 |
| 20260510011552 | 52 | 355 | 0.0 | 3.5 | 0.00 | 0.00 | 0.00 | 70 | 1016.7 |
| 20260510010053 | 52 | 26 | 1.7 | 4.3 | 0.00 | 0.00 | 0.00 | 68 | 1016.4 |
| 20260510004547 | 52 | 0 | 0.9 | 7.8 | 0.00 | 0.00 | 0.00 | 66 | 1016.6 |
| 20260510003103 | 53 | 261 | 0.9 | 6.1 | 0.00 | 0.00 | 0.00 | 65 | 1016.6 |
| 20260510001542 | 53 | 72 | 0.0 | 5.2 | 0.00 | 0.00 | 0.00 | 65 | 1016.5 |
| 20260510000054 | 53 | 0 | 0.0 | 3.5 | 0.00 | 0.00 | 0.00 | 65 | 1016.6 |
| 20260509234554 | 54 | 355 | 0.0 | 3.5 | 0.00 | 0.00 | 0.00 | 64 | 1016.4 |
| 20260509233051 | 53 | 184 | 0.9 | 4.3 | 0.00 | 0.00 | 0.00 | 63 | 1016.3 |
| 20260509231558 | 53 | 0 | 0.0 | 2.6 | 0.00 | 0.00 | 0.00 | 63 | 1016.4 |
| 20260509230053 | 53 | 0 | 0.0 | 1.7 | 0.00 | 0.00 | 0.00 | 62 | 1016.3 |
| 20260509224556 | 54 | 0 | 0.0 | 1.7 | 0.00 | 0.00 | 0.00 | 60 | 1016.2 |
| 20260509223059 | 55 | 0 | 0.0 | 0.0 | 0.00 | 0.00 | 0.00 | 58 | 1016.1 |
| 20260509221552 | 55 | 0 | 0.0 | 0.0 | 0.00 | 0.00 | 0.00 | 57 | 1016.0 |
| 20260509220058 | 56 | 0 | 0.0 | 0.0 | 0.00 | 0.00 | 0.00 | 55 | 1016.1 |
| 20260509214555 | 57 | 0 | 0.0 | 0.9 | 0.00 | 0.00 | 0.00 | 54 | 1016.2 |
| 20260509213057 | 57 | 0 | 0.0 | 0.9 | 0.00 | 0.00 | 0.00 | 53 | 1016.4 |
| 20260509211552 | 58 | 0 | 0.0 | 2.6 | 0.00 | 0.00 | 0.00 | 51 | 1016.2 |
| 20260509210058 | 58 | 0 | 0.0 | 3.5 | 0.00 | 0.00 | 0.00 | 50 | 1016.0 |
| 20260509204601 | 59 | 65 | 0.9 | 3.5 | 0.00 | 0.00 | 0.00 | 51 | 1016.0 |
| 20260509203113 | 60 | 88 | 0.0 | 2.6 | 0.00 | 0.00 | 0.00 | 51 | 1015.9 |
| 20260509201553 | 60 | 131 | 0.0 | 3.5 | 0.00 | 0.00 | 0.00 | 50 | 1015.9 |
| 20260509200045 | 61 | 0 | 0.0 | 3.5 | 0.00 | 0.00 | 0.00 | 49 | 1015.6 |
| 20260509194552 | 62 | 82 | 0.0 | 3.5 | 0.00 | 0.00 | 0.00 | 48 | 1015.7 |
| 20260509193055 | 63 | 90 | 0.0 | 1.7 | 0.00 | 0.00 | 0.00 | 47 | 1015.6 |
| 20260509191550 | 63 | 0 | 0.0 | 2.6 | 0.00 | 0.00 | 0.00 | 46 | 1015.5 |
| 20260509190052 | 64 | 87 | 0.9 | 6.1 | 0.00 | 0.00 | 0.00 | 45 | 1015.2 |
| 20260509184552 | 65 | 51 | 0.9 | 4.3 | 0.00 | 0.00 | 0.00 | 44 | 1015.5 |
| 20260509183051 | 66 | 66 | 0.9 | 7.0 | 0.00 | 0.00 | 0.00 | 43 | 1015.2 |
| 20260509181606 | 67 | 93 | 0.9 | 3.5 | 0.00 | 0.00 | 0.00 | 43 | 1015.3 |
| 20260509180113 | 67 | 107 | 0.9 | 6.1 | 0.00 | 0.00 | 0.00 | 42 | 1015.1 |
| 20260509174546 | 68 | 132 | 1.7 | 4.3 | 0.00 | 0.00 | 0.00 | 42 | 1015.2 |
| 20260509173106 | 69 | 29 | 0.9 | 6.1 | 0.00 | 0.00 | 0.00 | 43 | 1015.1 |
| 20260509171553 | 69 | 80 | 1.7 | 6.1 | 0.00 | 0.00 | 0.00 | 41 | 1015.1 |
| 20260509170054 | 70 | 43 | 0.9 | 5.2 | 0.00 | 0.00 | 0.00 | 40 | 1015.4 |
| 20260509164551 | 71 | 80 | 0.9 | 7.0 | 0.00 | 0.00 | 0.00 | 39 | 1015.4 |
| 20260509163055 | 72 | 0 | 0.9 | 8.7 | 0.00 | 0.00 | 0.00 | 38 | 1015.1 |
| 20260509161600 | 73 | 87 | 1.7 | 7.8 | 0.00 | 0.00 | 0.00 | 38 | 1015.1 |
| 20260509160046 | 73 | 71 | 0.9 | 7.0 | 0.00 | 0.00 | 0.00 | 41 | 1015.3 |
| 20260509154556 | 73 | 122 | 0.9 | 7.0 | 0.00 | 0.00 | 0.00 | 41 | 1015.4 |
| 20260509153106 | 74 | 94 | 1.7 | 6.1 | 0.00 | 0.00 | 0.00 | 38 | 1015.4 |
| 20260509151559 | 74 | 117 | 1.7 | 5.2 | 0.00 | 0.00 | 0.00 | 37 | 1015.5 |
| 20260509150048 | 73 | 57 | 0.9 | 4.3 | 0.00 | 0.00 | 0.00 | 40 | 1015.4 |
| 20260509144552 | 74 | 103 | 1.7 | 6.1 | 0.00 | 0.00 | 0.00 | 38 | 1015.4 |
| 20260509143102 | 73 | 0 | 0.0 | 5.2 | 0.00 | 0.00 | 0.00 | 42 | 1015.2 |
| 20260509141553 | 72 | 56 | 0.9 | 7.0 | 0.00 | 0.00 | 0.00 | 39 | 1015.0 |